{"data":{"norad_id":55333,"intl_designator":"2023-013C","name":"STARLINK-5493","alt_names":[],"object_type":"PAYLOAD","status":"ACTIVE","operator":null,"country":"US","launch_date":"2023-01-26","launch_site_code":"AFETR","launch_vehicle":null,"mission":null,"orbit_class":"UNKNOWN","rcs_meters":null,"size_class":null,"mass_kg":null,"dimensions":null,"purposes":["comms"],"wikipedia_slug":null,"has_3d_model":false,"image_url":null,"decayed_at":null,"tle_current":{"epoch":"2026-09-19T02:50:14.528544Z","epoch_age_seconds":216109,"freshness":"STALE","line1":"1 55333U 23013C   26262.11822371 -.00000194  00000+0  24652-5 0  9999","line2":"2 55333  43.0024 291.2176 0000969 267.5853  92.4888 15.27575764201250","mean_motion":15.27575764,"eccentricity":9.69e-5,"inclination_deg":43.0024,"raan_deg":291.2176,"arg_perigee_deg":267.5853,"mean_anomaly_deg":92.4888,"bstar":2.4652e-6,"rev_number":20125,"period_min":94.267010117346,"perigee_km":482.39693001506,"apogee_km":483.72663033866,"semimajor_km":6861.1987801769,"source":"CELESTRAK","updated_at":"2026-09-21T09:00:33.178000Z"}}}